Location: Casone le Fosse
(44.6547°N, 12.1103°E)
Time: 11:48:40
(UTC+00:00)

BREEZE-M TANK - Pass Details

Date: 29 October 2020
Orbit: 550 x 24736 km, 45.2° (Epoch: 27 November)

Event Time Altitude Azimuth Distance (km) Brightness Sun altitude
Rises 17:07:43 0° 274° (W) 7,420 9.9 -11.8°
Reaches altitude 10° 17:14:25 10° 275° (W) 4,463 8.3 -13.0°
Maximum altitude 17:22:52 87° 4° (N) 787 3.0 -14.5°
Enters shadow 17:25:01 25° 95° (E) 1,280 3.6 -14.9°
